| time (UTC) | temp C | wind direction | speed KPH | gust KPH | rain 1hr cm | rain 24hr cm | rain mn cm | humidity % | barometer mb |
| 20260510043304 | 10 | 130 | 0.0 | 3.2 | 0.00 | 0.28 | 0.00 | 93 | 1010.9 |
| 20260510042805 | 10 | 130 | 1.6 | 3.2 | 0.00 | 0.28 | 0.00 | 93 | 1010.9 |
| 20260510042306 | 10 | 130 | 0.0 | 0.0 | 0.00 | 0.28 | 0.00 | 93 | 1010.9 |
| 20260510041804 | 10 | 130 | 0.0 | 0.0 | 0.00 | 0.28 | 0.00 | 93 | 1011.0 |
| 20260510041304 | 10 | 130 | 0.0 | 0.0 | 0.00 | 0.28 | 0.00 | 93 | 1011.0 |
| 20260510040817 | 10 | 130 | 0.0 | 0.0 | 0.00 | 0.28 | 0.00 | 93 | 1011.1 |
| 20260510040304 | 10 | 130 | 0.0 | 1.6 | 0.00 | 0.28 | 0.00 | 93 | 1011.1 |
| 20260510035804 | 10 | 130 | 0.0 | 3.2 | 0.00 | 0.28 | 0.28 | 93 | 1011.1 |
| 20260510035306 | 10 | 130 | 1.6 | 4.8 | 0.00 | 0.28 | 0.28 | 93 | 1011.1 |
| 20260510034804 | 10 | 130 | 3.2 | 4.8 | 0.00 | 0.28 | 0.28 | 93 | 1011.0 |
| 20260510034304 | 10 | 130 | 3.2 | 4.8 | 0.00 | 0.28 | 0.28 | 93 | 1011.0 |
| 20260510033804 | 10 | 130 | 1.6 | 3.2 | 0.00 | 0.28 | 0.28 | 93 | 1011.1 |
| 20260510033304 | 10 | 130 | 1.6 | 3.2 | 0.00 | 0.28 | 0.28 | 93 | 1011.1 |
| 20260510032306 | 10 | 130 | 0.0 | 1.6 | 0.00 | 0.28 | 0.28 | 93 | 1011.1 |
| 20260510031804 | 10 | 130 | 0.0 | 3.2 | 0.00 | 0.28 | 0.28 | 92 | 1011.1 |
| 20260510031304 | 11 | 130 | 1.6 | 4.8 | 0.00 | 0.28 | 0.28 | 92 | 1011.1 |
| 20260510030804 | 11 | 130 | 1.6 | 3.2 | 0.00 | 0.28 | 0.28 | 92 | 1011.1 |
| 20260510030304 | 11 | 130 | 1.6 | 3.2 | 0.00 | 0.28 | 0.28 | 92 | 1011.0 |
| 20260510025306 | 11 | 130 | 0.0 | 0.0 | 0.00 | 0.28 | 0.28 | 92 | 1010.9 |
| 20260510023803 | 11 | 130 | 0.0 | 1.6 | 0.00 | 0.28 | 0.28 | 92 | 1010.9 |
| 20260510023304 | 11 | 130 | 1.6 | 3.2 | 0.00 | 0.28 | 0.28 | 92 | 1010.8 |
| 20260510022306 | 11 | 130 | 1.6 | 3.2 | 0.00 | 0.28 | 0.28 | 91 | 1010.9 |
| 20260510021804 | 11 | 130 | 1.6 | 3.2 | 0.00 | 0.28 | 0.28 | 91 | 1010.8 |
| 20260510021304 | 12 | 130 | 0.0 | 3.2 | 0.00 | 0.28 | 0.28 | 91 | 1010.9 |
| 20260510020803 | 12 | 130 | 3.2 | 4.8 | 0.00 | 0.28 | 0.28 | 91 | 1010.7 |
| 20260510020304 | 12 | 130 | 1.6 | 4.8 | 0.00 | 0.28 | 0.28 | 90 | 1010.6 |
| 20260510015804 | 12 | 130 | 4.8 | 4.8 | 0.00 | 0.28 | 0.28 | 91 | 1010.6 |
| 20260510015306 | 12 | 129 | 4.8 | 4.8 | 0.00 | 0.28 | 0.28 | 91 | 1010.6 |
| 20260510014804 | 12 | 131 | 3.2 | 9.7 | 0.00 | 0.28 | 0.28 | 90 | 1010.5 |
| 20260510014304 | 12 | 134 | 4.8 | 4.8 | 0.00 | 0.28 | 0.28 | 90 | 1010.4 |
| 20260510013304 | 12 | 131 | 3.2 | 4.8 | 0.00 | 0.28 | 0.28 | 90 | 1010.5 |
| 20260510012803 | 12 | 131 | 3.2 | 4.8 | 0.00 | 0.28 | 0.28 | 90 | 1010.4 |
| 20260510012306 | 12 | 131 | 3.2 | 4.8 | 0.00 | 0.28 | 0.28 | 90 | 1010.5 |
| 20260510011804 | 12 | 122 | 1.6 | 4.8 | 0.00 | 0.28 | 0.28 | 90 | 1010.4 |
| 20260510011305 | 12 | 121 | 3.2 | 4.8 | 0.00 | 0.28 | 0.28 | 89 | 1010.4 |
| 20260510010806 | 12 | 128 | 3.2 | 4.8 | 0.00 | 0.28 | 0.28 | 89 | 1010.3 |
| 20260510005806 | 12 | 146 | 0.0 | 0.0 | 0.00 | 0.28 | 0.28 | 89 | 1010.3 |
| 20260510005306 | 12 | 146 | 0.0 | 0.0 | 0.00 | 0.28 | 0.28 | 88 | 1010.2 |
| 20260510004806 | 13 | 146 | 0.0 | 0.0 | 0.00 | 0.28 | 0.28 | 87 | 1010.1 |
| 20260510004306 | 13 | 146 | 1.6 | 3.2 | 0.00 | 0.28 | 0.28 | 87 | 1010.1 |
| 20260510003806 | 13 | 146 | 3.2 | 8.0 | 0.00 | 0.28 | 0.28 | 87 | 1009.9 |
| 20260510003305 | 13 | 142 | 3.2 | 4.8 | 0.00 | 0.28 | 0.28 | 86 | 1009.9 |
| 20260510002805 | 13 | 138 | 3.2 | 4.8 | 0.00 | 0.28 | 0.28 | 86 | 1009.7 |
| 20260510002307 | 13 | 138 | 3.2 | 4.8 | 0.00 | 0.28 | 0.28 | 86 | 1009.7 |
| 20260510000806 | 13 | 147 | 3.2 | 8.0 | 0.00 | 0.28 | 0.28 | 84 | 1009.7 |
| 20260510000305 | 13 | 153 | 3.2 | 4.8 | 0.00 | 0.28 | 0.28 | 84 | 1009.6 |
| 20260509235806 | 13 | 149 | 4.8 | 8.0 | 0.00 | 0.28 | 0.28 | 83 | 1009.6 |
| 20260509235307 | 14 | 161 | 4.8 | 4.8 | 0.00 | 0.28 | 0.28 | 82 | 1009.5 |
| 20260509234805 | 14 | 152 | 3.2 | 4.8 | 0.00 | 0.28 | 0.28 | 82 | 1009.6 |
| 20260509234306 | 14 | 145 | 3.2 | 4.8 | 0.00 | 0.28 | 0.28 | 81 | 1009.6 |
| 20260509233806 | 15 | 137 | 3.2 | 4.8 | 0.00 | 0.28 | 0.28 | 80 | 1009.5 |
| 20260509233305 | 15 | 124 | 3.2 | 4.8 | 0.00 | 0.28 | 0.28 | 80 | 1009.4 |
| 20260509232806 | 15 | 129 | 4.8 | 4.8 | 0.00 | 0.28 | 0.28 | 79 | 1009.4 |
| 20260509231805 | 15 | 119 | 3.2 | 8.0 | 0.00 | 0.28 | 0.28 | 78 | 1009.5 |
| 20260509231306 | 15 | 129 | 3.2 | 8.0 | 0.00 | 0.28 | 0.28 | 77 | 1009.5 |
| 20260509230805 | 15 | 120 | 3.2 | 4.8 | 0.00 | 0.28 | 0.28 | 77 | 1009.5 |
| 20260509225806 | 15 | 160 | 3.2 | 4.8 | 0.00 | 0.28 | 0.28 | 76 | 1009.6 |
| 20260509225306 | 15 | 132 | 1.6 | 3.2 | 0.00 | 0.28 | 0.28 | 77 | 1009.6 |
| 20260509224806 | 15 | 132 | 3.2 | 4.8 | 0.00 | 0.28 | 0.28 | 76 | 1009.6 |
| 20260509224306 | 15 | 125 | 1.6 | 4.8 | 0.00 | 0.28 | 0.28 | 76 | 1009.6 |
| 20260509223805 | 15 | 136 | 4.8 | 8.0 | 0.00 | 0.28 | 0.28 | 76 | 1009.5 |
| 20260509223306 | 15 | 142 | 1.6 | 4.8 | 0.00 | 0.28 | 0.28 | 76 | 1009.5 |
| 20260509222806 | 15 | 146 | 4.8 | 4.8 | 0.00 | 0.28 | 0.28 | 75 | 1009.5 |
| 20260509222307 | 15 | 131 | 3.2 | 4.8 | 0.00 | 0.28 | 0.28 | 75 | 1009.4 |
| 20260509221806 | 15 | 67 | 1.6 | 4.8 | 0.00 | 0.28 | 0.28 | 75 | 1009.4 |
| 20260509221305 | 15 | 338 | 1.6 | 4.8 | 0.00 | 0.28 | 0.28 | 75 | 1009.4 |
| 20260509220805 | 15 | 338 | 1.6 | 4.8 | 0.00 | 0.28 | 0.28 | 75 | 1009.5 |
| 20260509215806 | 15 | 338 | 0.0 | 3.2 | 0.00 | 0.28 | 0.28 | 76 | 1009.7 |
| 20260509215306 | 15 | 338 | 3.2 | 4.8 | 0.00 | 0.28 | 0.28 | 76 | 1009.6 |
| 20260509214805 | 15 | 338 | 1.6 | 4.8 | 0.00 | 0.28 | 0.28 | 78 | 1009.7 |
| 20260509214305 | 15 | 321 | 4.8 | 4.8 | 0.00 | 0.28 | 0.28 | 77 | 1009.8 |
| 20260509213805 | 15 | 327 | 4.8 | 8.0 | 0.00 | 0.28 | 0.28 | 77 | 1009.9 |
| 20260509213305 | 15 | 331 | 4.8 | 8.0 | 0.00 | 0.28 | 0.28 | 77 | 1010.0 |
| 20260509212805 | 15 | 269 | 3.2 | 4.8 | 0.00 | 0.28 | 0.28 | 78 | 1009.9 |
| 20260509212306 | 15 | 338 | 4.8 | 4.8 | 0.00 | 0.28 | 0.28 | 77 | 1009.8 |
| 20260509211806 | 15 | 338 | 1.6 | 3.2 | 0.00 | 0.28 | 0.28 | 77 | 1009.8 |
| 20260509210805 | 15 | 338 | 1.6 | 4.8 | 0.00 | 0.28 | 0.28 | 78 | 1009.7 |
| 20260509210305 | 15 | 338 | 3.2 | 4.8 | 0.00 | 0.28 | 0.28 | 78 | 1009.7 |
| 20260509205805 | 15 | 338 | 0.0 | 3.2 | 0.00 | 0.28 | 0.28 | 78 | 1009.8 |
| 20260509204306 | 15 | 74 | 3.2 | 4.8 | 0.00 | 0.28 | 0.28 | 77 | 1010.1 |
| 20260509203806 | 15 | 314 | 4.8 | 12.9 | 0.00 | 0.28 | 0.28 | 77 | 1010.0 |
| 20260509203305 | 15 | 331 | 4.8 | 16.1 | 0.00 | 0.28 | 0.28 | 76 | 1010.2 |
| 20260509202806 | 16 | 331 | 9.7 | 14.5 | 0.00 | 0.28 | 0.28 | 74 | 1010.3 |
| 20260509201806 | 16 | 305 | 3.2 | 12.9 | 0.00 | 0.28 | 0.28 | 75 | 1010.3 |
| 20260509201305 | 16 | 324 | 8.0 | 14.5 | 0.00 | 0.28 | 0.28 | 75 | 1010.3 |
| 20260509200806 | 16 | 245 | 3.2 | 11.3 | 0.00 | 0.28 | 0.28 | 77 | 1010.3 |
| 20260509200305 | 16 | 321 | 9.7 | 14.5 | 0.00 | 0.28 | 0.28 | 76 | 1010.3 |
| 20260509195805 | 16 | 23 | 1.6 | 4.8 | 0.00 | 0.28 | 0.28 | 79 | 1010.3 |
| 20260509195306 | 16 | 0 | 4.8 | 11.3 | 0.00 | 0.28 | 0.28 | 82 | 1010.3 |
| 20260509194806 | 15 | 99 | 1.6 | 4.8 | 0.00 | 0.28 | 0.28 | 83 | 1010.2 |
| 20260509193806 | 15 | 63 | 4.8 | 8.0 | 0.00 | 0.28 | 0.28 | 83 | 1010.3 |
| 20260509192306 | 15 | 57 | 1.6 | 4.8 | 0.00 | 0.28 | 0.28 | 83 | 1010.5 |
| 20260509191305 | 15 | 57 | 4.8 | 9.7 | 0.03 | 0.28 | 0.28 | 85 | 1010.6 |
| 20260509190805 | 15 | 52 | 4.8 | 4.8 | 0.05 | 0.28 | 0.28 | 85 | 1010.7 |
| 20260509190305 | 14 | 111 | 3.2 | 4.8 | 0.05 | 0.28 | 0.28 | 86 | 1010.7 |
| 20260509185805 | 14 | 138 | 8.0 | 14.5 | 0.05 | 0.28 | 0.28 | 86 | 1010.7 |
| 20260509185306 | 13 | 106 | 4.8 | 14.5 | 0.05 | 0.28 | 0.28 | 86 | 1010.7 |
| 20260509184805 | 13 | 140 | 6.4 | 12.9 | 0.05 | 0.28 | 0.28 | 86 | 1011.0 |
| 20260509184305 | 13 | 135 | 4.8 | 9.7 | 0.05 | 0.28 | 0.28 | 86 | 1011.1 |
| 20260509183805 | 13 | 178 | 1.6 | 3.2 | 0.05 | 0.28 | 0.28 | 85 | 1011.2 |
| 20260509183305 | 13 | 178 | 0.0 | 1.6 | 0.05 | 0.28 | 0.28 | 86 | 1011.4 |
| 20260509182805 | 12 | 178 | 0.0 | 1.6 | 0.05 | 0.28 | 0.28 | 86 | 1011.4 |
| 20260509181305 | 12 | 162 | 3.2 | 4.8 | 0.03 | 0.25 | 0.25 | 86 | 1011.4 |
| 20260509180805 | 13 | 204 | 4.8 | 8.0 | 0.00 | 0.23 | 0.23 | 86 | 1011.7 |
| 20260509175805 | 13 | 176 | 1.6 | 3.2 | 0.00 | 0.23 | 0.23 | 85 | 1011.6 |
| 20260509175307 | 13 | 194 | 0.0 | 3.2 | 0.00 | 0.23 | 0.23 | 85 | 1011.6 |
| 20260509174805 | 13 | 218 | 0.0 | 3.2 | 0.00 | 0.23 | 0.23 | 84 | 1011.6 |
| 20260509174305 | 13 | 218 | 0.0 | 1.6 | 0.00 | 0.23 | 0.23 | 84 | 1011.6 |
| 20260509173806 | 12 | 218 | 1.6 | 3.2 | 0.00 | 0.23 | 0.23 | 83 | 1011.5 |
| 20260509173306 | 12 | 218 | 0.0 | 3.2 | 0.00 | 0.23 | 0.23 | 82 | 1011.6 |
| 20260509172805 | 13 | 218 | 1.6 | 3.2 | 0.00 | 0.23 | 0.23 | 83 | 1011.6 |
| 20260509171805 | 12 | 216 | 4.8 | 8.0 | 0.03 | 0.23 | 0.23 | 84 | 1011.7 |
| 20260509170305 | 12 | 261 | 3.2 | 4.8 | 0.10 | 0.23 | 0.23 | 84 | 1011.6 |
| 20260509165805 | 13 | 263 | 3.2 | 4.8 | 0.13 | 0.23 | 0.23 | 85 | 1011.5 |
| 20260509164305 | 12 | 334 | 3.2 | 9.7 | 0.18 | 0.23 | 0.23 | 85 | 1011.2 |
| 20260509163805 | 12 | 261 | 1.6 | 4.8 | 0.20 | 0.23 | 0.23 | 85 | 1011.2 |
| 20260509163305 | 12 | 241 | 1.6 | 3.2 | 0.20 | 0.23 | 0.23 | 85 | 1011.3 |
| 20260509162805 | 12 | 241 | 1.6 | 4.8 | 0.23 | 0.23 | 0.23 | 84 | 1011.0 |
| 20260509162307 | 12 | 241 | 0.0 | 3.2 | 0.20 | 0.20 | 0.20 | 84 | 1011.3 |
| 20260509161305 | 12 | 241 | 3.2 | 4.8 | 0.18 | 0.18 | 0.18 | 82 | 1011.8 |
| 20260509160805 | 13 | 241 | 1.6 | 4.8 | 0.15 | 0.15 | 0.15 | 82 | 1011.8 |
| 20260509160305 | 13 | 241 | 1.6 | 4.8 | 0.13 | 0.13 | 0.13 | 80 | 1011.9 |
| 20260509155805 | 13 | 241 | 0.0 | 3.2 | 0.10 | 0.10 | 0.10 | 80 | 1011.8 |
| 20260509155306 | 13 | 241 | 0.0 | 4.8 | 0.08 | 0.08 | 0.08 | 79 | 1011.9 |
| 20260509154805 | 13 | 233 | 4.8 | 9.7 | 0.08 | 0.08 | 0.08 | 77 | 1012.0 |
| 20260509154305 | 13 | 207 | 4.8 | 9.7 | 0.05 | 0.05 | 0.05 | 77 | 1012.1 |
| 20260509153305 | 13 | 243 | 6.4 | 12.9 | 0.03 | 0.03 | 0.03 | 74 | 1012.3 |
| 20260509152805 | 14 | 231 | 6.4 | 12.9 | 0.00 | 0.00 | 0.00 | 72 | 1012.3 |
| 20260509152306 | 14 | 205 | 4.8 | 14.5 | 0.00 | 0.00 | 0.00 | 69 | 1012.2 |
| 20260509151805 | 15 | 236 | 4.8 | 19.3 | 0.00 | 0.00 | 0.00 | 68 | 1012.2 |
| 20260509150805 | 15 | 257 | 8.0 | 16.1 | 0.00 | 0.00 | 0.00 | 66 | 1012.2 |
| 20260509150305 | 15 | 200 | 4.8 | 16.1 | 0.00 | 0.00 | 0.00 | 66 | 1012.1 |
| 20260509145805 | 15 | 207 | 9.7 | 20.9 | 0.00 | 0.00 | 0.00 | 66 | 1012.1 |
| 20260509145306 | 15 | 234 | 16.1 | 29.0 | 0.00 | 0.00 | 0.00 | 66 | 1012.1 |
| 20260509144305 | 15 | 244 | 4.8 | 9.7 | 0.00 | 0.00 | 0.00 | 68 | 1011.9 |
| 20260509143805 | 15 | 192 | 4.8 | 14.5 | 0.00 | 0.00 | 0.00 | 69 | 1011.8 |
| 20260509142805 | 15 | 264 | 8.0 | 16.1 | 0.00 | 0.00 | 0.00 | 68 | 1011.9 |
| 20260509142307 | 15 | 239 | 6.4 | 16.1 | 0.00 | 0.00 | 0.00 | 68 | 1011.6 |
| 20260509141804 | 15 | 179 | 4.8 | 12.9 | 0.00 | 0.00 | 0.00 | 70 | 1011.6 |
| 20260509141305 | 15 | 242 | 3.2 | 9.7 | 0.00 | 0.00 | 0.00 | 69 | 1011.7 |
| 20260509140805 | 15 | 227 | 9.7 | 19.3 | 0.00 | 0.00 | 0.00 | 69 | 1011.5 |
| 20260509140305 | 15 | 241 | 3.2 | 14.5 | 0.00 | 0.00 | 0.00 | 72 | 1011.5 |
| 20260509135805 | 15 | 350 | 1.6 | 4.8 | 0.00 | 0.00 | 0.00 | 73 | 1011.2 |
| 20260509135306 | 15 | 197 | 3.2 | 9.7 | 0.00 | 0.00 | 0.00 | 72 | 1011.2 |
| 20260509134805 | 15 | 304 | 3.2 | 9.7 | 0.00 | 0.00 | 0.00 | 73 | 1011.4 |
| 20260509134305 | 14 | 213 | 4.8 | 9.7 | 0.00 | 0.00 | 0.00 | 73 | 1011.4 |
| 20260509133805 | 14 | 322 | 3.2 | 4.8 | 0.00 | 0.00 | 0.00 | 73 | 1011.3 |
| 20260509132805 | 14 | 269 | 1.6 | 9.7 | 0.00 | 0.00 | 0.00 | 72 | 1011.4 |
| 20260509132306 | 14 | 216 | 4.8 | 14.5 | 0.00 | 0.00 | 0.00 | 73 | 1011.3 |
| 20260509131304 | 13 | 278 | 6.4 | 12.9 | 0.00 | 0.00 | 0.00 | 76 | 1011.4 |
| 20260509130805 | 13 | 200 | 1.6 | 4.8 | 0.00 | 0.00 | 0.00 | 78 | 1011.4 |
| 20260509130304 | 13 | 71 | 3.2 | 4.8 | 0.00 | 0.00 | 0.00 | 77 | 1011.4 |
| 20260509125805 | 13 | 72 | 1.6 | 4.8 | 0.00 | 0.00 | 0.00 | 77 | 1011.4 |
| 20260509125307 | 13 | 72 | 4.8 | 8.0 | 0.00 | 0.00 | 0.00 | 78 | 1011.3 |
| 20260509124805 | 13 | 80 | 1.6 | 4.8 | 0.00 | 0.00 | 0.00 | 78 | 1011.4 |
| 20260509124305 | 13 | 80 | 3.2 | 4.8 | 0.00 | 0.00 | 0.00 | 77 | 1011.4 |
| 20260509123804 | 13 | 80 | 3.2 | 4.8 | 0.00 | 0.00 | 0.00 | 78 | 1011.1 |
| 20260509122805 | 12 | 93 | 1.6 | 4.8 | 0.00 | 0.00 | 0.00 | 78 | 1011.2 |
| 20260509122306 | 12 | 55 | 3.2 | 4.8 | 0.00 | 0.00 | 0.00 | 78 | 1011.2 |
| 20260509121805 | 12 | 112 | 3.2 | 4.8 | 0.00 | 0.00 | 0.00 | 77 | 1011.2 |
| 20260509121305 | 12 | 73 | 3.2 | 4.8 | 0.00 | 0.00 | 0.00 | 78 | 1011.2 |
| 20260509120805 | 12 | 119 | 3.2 | 4.8 | 0.00 | 0.00 | 0.00 | 78 | 1011.3 |
| 20260509120304 | 12 | 71 | 3.2 | 4.8 | 0.00 | 0.00 | 0.00 | 78 | 1011.3 |
| 20260509115805 | 12 | 131 | 1.6 | 3.2 | 0.00 | 0.00 | 0.00 | 78 | 1011.5 |
| 20260509115306 | 12 | 131 | 3.2 | 4.8 | 0.00 | 0.00 | 0.00 | 78 | 1011.3 |
| 20260509114805 | 12 | 131 | 3.2 | 4.8 | 0.00 | 0.00 | 0.00 | 78 | 1011.2 |
| 20260509114304 | 12 | 72 | 3.2 | 4.8 | 0.00 | 0.00 | 0.00 | 78 | 1011.2 |
| 20260509113804 | 12 | 72 | 3.2 | 4.8 | 0.00 | 0.00 | 0.00 | 79 | 1011.2 |
| 20260509113305 | 12 | 119 | 3.2 | 4.8 | 0.00 | 0.00 | 0.00 | 79 | 1011.2 |
| 20260509112804 | 12 | 71 | 3.2 | 4.8 | 0.00 | 0.00 | 0.00 | 79 | 1011.2 |
| 20260509112307 | 12 | 120 | 3.2 | 4.8 | 0.00 | 0.00 | 0.00 | 79 | 1011.3 |
| 20260509111805 | 12 | 120 | 4.8 | 8.0 | 0.00 | 0.00 | 0.00 | 79 | 1011.2 |
| 20260509111305 | 12 | 120 | 3.2 | 8.0 | 0.00 | 0.00 | 0.00 | 79 | 1011.1 |
| 20260509110805 | 12 | 120 | 3.2 | 4.8 | 0.00 | 0.00 | 0.00 | 80 | 1011.1 |
| 20260509110305 | 11 | 120 | 1.6 | 4.8 | 0.00 | 0.00 | 0.00 | 80 | 1011.0 |
| 20260509105805 | 11 | 120 | 1.6 | 4.8 | 0.00 | 0.00 | 0.00 | 80 | 1011.1 |
| 20260509105306 | 11 | 120 | 0.0 | 3.2 | 0.00 | 0.00 | 0.00 | 79 | 1011.0 |
| 20260509104805 | 11 | 120 | 3.2 | 4.8 | 0.00 | 0.00 | 0.00 | 80 | 1010.9 |
| 20260509104305 | 11 | 120 | 1.6 | 4.8 | 0.00 | 0.00 | 0.00 | 80 | 1010.8 |
| 20260509103804 | 11 | 120 | 3.2 | 4.8 | 0.00 | 0.00 | 0.00 | 81 | 1010.7 |
| 20260509103305 | 11 | 120 | 3.2 | 4.8 | 0.00 | 0.00 | 0.00 | 81 | 1010.6 |
| 20260509102804 | 10 | 120 | 3.2 | 4.8 | 0.00 | 0.00 | 0.00 | 80 | 1010.7 |
| 20260509102306 | 10 | 120 | 1.6 | 3.2 | 0.00 | 0.00 | 0.00 | 81 | 1011.0 |
| 20260509101805 | 10 | 120 | 0.0 | 3.2 | 0.00 | 0.00 | 0.00 | 81 | 1010.7 |
| 20260509101305 | 10 | 120 | 1.6 | 3.2 | 0.00 | 0.00 | 0.00 | 80 | 1010.6 |
| 20260509100804 | 10 | 120 | 0.0 | 4.8 | 0.00 | 0.00 | 0.00 | 80 | 1010.6 |
| 20260509100304 | 10 | 120 | 3.2 | 3.2 | 0.00 | 0.00 | 0.00 | 79 | 1010.6 |
| 20260509095306 | 10 | 120 | 1.6 | 4.8 | 0.00 | 0.00 | 0.00 | 78 | 1010.7 |
| 20260509093804 | 10 | 120 | 3.2 | 4.8 | 0.00 | 0.00 | 0.00 | 78 | 1010.7 |
| 20260509093305 | 10 | 120 | 1.6 | 4.8 | 0.00 | 0.00 | 0.00 | 78 | 1010.7 |
| 20260509092805 | 10 | 49 | 3.2 | 4.8 | 0.00 | 0.00 | 0.00 | 78 | 1010.9 |
| 20260509092306 | 10 | 49 | 1.6 | 3.2 | 0.00 | 0.00 | 0.00 | 79 | 1010.8 |
| 20260509091805 | 10 | 49 | 0.0 | 1.6 | 0.00 | 0.00 | 0.00 | 79 | 1010.9 |
| 20260509091305 | 10 | 49 | 0.0 | 1.6 | 0.00 | 0.00 | 0.00 | 78 | 1010.9 |
| 20260509090804 | 10 | 49 | 0.0 | 0.0 | 0.00 | 0.00 | 0.00 | 78 | 1010.9 |
| 20260509090304 | 10 | 49 | 0.0 | 0.0 | 0.00 | 0.00 | 0.00 | 78 | 1010.9 |
| 20260509085804 | 10 | 49 | 0.0 | 1.6 | 0.00 | 0.00 | 0.00 | 78 | 1010.9 |
| 20260509085306 | 10 | 49 | 0.0 | 0.0 | 0.00 | 0.00 | 0.00 | 78 | 1011.0 |
| 20260509084805 | 10 | 49 | 0.0 | 1.6 | 0.00 | 0.00 | 0.00 | 78 | 1011.1 |
| 20260509084304 | 10 | 49 | 1.6 | 3.2 | 0.00 | 0.00 | 0.00 | 77 | 1011.1 |
| 20260509083804 | 10 | 49 | 0.0 | 1.6 | 0.00 | 0.00 | 0.00 | 77 | 1011.2 |
| 20260509083304 | 10 | 49 | 1.6 | 3.2 | 0.00 | 0.00 | 0.00 | 76 | 1011.1 |
| 20260509082805 | 10 | 49 | 1.6 | 4.8 | 0.00 | 0.00 | 0.00 | 76 | 1011.2 |
| 20260509082307 | 10 | 49 | 3.2 | 3.2 | 0.00 | 0.00 | 0.00 | 77 | 1011.2 |
| 20260509081804 | 10 | 49 | 0.0 | 4.8 | 0.00 | 0.00 | 0.00 | 79 | 1011.3 |
| 20260509081304 | 10 | 215 | 3.2 | 3.2 | 0.00 | 0.00 | 0.00 | 78 | 1011.2 |
| 20260509080804 | 10 | 215 | 0.0 | 1.6 | 0.00 | 0.00 | 0.00 | 78 | 1011.3 |
| 20260509080305 | 10 | 215 | 0.0 | 0.0 | 0.00 | 0.00 | 0.00 | 78 | 1011.3 |
| 20260509075804 | 10 | 215 | 0.0 | 1.6 | 0.00 | 0.00 | 0.00 | 78 | 1011.4 |
| 20260509074804 | 10 | 215 | 0.0 | 1.6 | 0.00 | 0.00 | 0.00 | 78 | 1011.4 |
| 20260509074304 | 10 | 215 | 0.0 | 1.6 | 0.00 | 0.00 | 0.00 | 78 | 1011.4 |
| 20260509073804 | 10 | 215 | 0.0 | 1.6 | 0.00 | 0.00 | 0.00 | 77 | 1011.5 |
| 20260509073304 | 10 | 215 | 1.6 | 1.6 | 0.00 | 0.00 | 0.00 | 76 | 1011.5 |
| 20260509072804 | 10 | 215 | 0.0 | 1.6 | 0.00 | 0.00 | 0.00 | 75 | 1011.5 |
| 20260509072306 | 10 | 215 | 1.6 | 3.2 | 0.00 | 0.00 | 0.00 | 75 | 1011.6 |
| 20260509071804 | 10 | 215 | 1.6 | 3.2 | 0.00 | 0.00 | 0.00 | 74 | 1011.6 |
| 20260509071304 | 10 | 215 | 1.6 | 3.2 | 0.00 | 0.00 | 0.00 | 73 | 1011.5 |
| 20260509070304 | 11 | 156 | 1.6 | 3.2 | 0.00 | 0.00 | 0.00 | 72 | 1011.4 |
| 20260509065804 | 11 | 156 | 1.6 | 3.2 | 0.00 | 0.00 | 0.00 | 71 | 1011.4 |
| 20260509065306 | 11 | 156 | 1.6 | 1.6 | 0.00 | 0.00 | 0.00 | 70 | 1011.4 |
| 20260509064804 | 11 | 156 | 0.0 | 1.6 | 0.00 | 0.00 | 0.00 | 68 | 1011.4 |
| 20260509064304 | 12 | 156 | 1.6 | 4.8 | 0.00 | 0.00 | 0.00 | 67 | 1011.4 |
| 20260509063804 | 11 | 156 | 3.2 | 4.8 | 0.00 | 0.00 | 0.00 | 67 | 1011.4 |
| 20260509063304 | 11 | 156 | 4.8 | 8.0 | 0.00 | 0.00 | 0.00 | 66 | 1011.3 |
| 20260509062306 | 11 | 134 | 1.6 | 4.8 | 0.00 | 0.00 | 0.00 | 64 | 1011.5 |
| 20260509061804 | 11 | 139 | 4.8 | 8.0 | 0.00 | 0.00 | 0.00 | 65 | 1011.6 |
| 20260509060804 | 11 | 138 | 1.6 | 4.8 | 0.00 | 0.00 | 0.00 | 66 | 1011.7 |
| 20260509060304 | 11 | 138 | 3.2 | 4.8 | 0.00 | 0.00 | 0.00 | 66 | 1011.8 |
| 20260509055805 | 11 | 130 | 4.8 | 8.0 | 0.00 | 0.00 | 0.00 | 68 | 1011.9 |
| 20260509055306 | 11 | 148 | 3.2 | 4.8 | 0.00 | 0.00 | 0.00 | 68 | 1012.0 |
| 20260509054804 | 11 | 150 | 3.2 | 4.8 | 0.00 | 0.00 | 0.00 | 68 | 1012.1 |
| 20260509054304 | 11 | 211 | 1.6 | 3.2 | 0.00 | 0.00 | 0.00 | 69 | 1012.2 |
| 20260509053804 | 11 | 211 | 0.0 | 3.2 | 0.00 | 0.00 | 0.00 | 68 | 1012.3 |
| 20260509053304 | 11 | 211 | 3.2 | 4.8 | 0.00 | 0.00 | 0.00 | 67 | 1012.3 |
| 20260509052804 | 11 | 211 | 3.2 | 4.8 | 0.00 | 0.00 | 0.00 | 67 | 1012.3 |
| 20260509052307 | 11 | 211 | 3.2 | 4.8 | 0.00 | 0.00 | 0.00 | 68 | 1012.3 |
| 20260509051304 | 11 | 211 | 0.0 | 1.6 | 0.00 | 0.00 | 0.00 | 68 | 1012.4 |
| 20260509050804 | 11 | 211 | 1.6 | 4.8 | 0.00 | 0.00 | 0.00 | 68 | 1012.3 |
| 20260509045804 | 12 | 211 | 1.6 | 4.8 | 0.00 | 0.00 | 0.00 | 66 | 1012.5 |
| 20260509045306 | 12 | 211 | 1.6 | 4.8 | 0.00 | 0.00 | 0.00 | 67 | 1012.6 |
| 20260509044804 | 12 | 211 | 3.2 | 4.8 | 0.00 | 0.00 | 0.00 | 67 | 1012.5 |
| 20260509044303 | 12 | 211 | 1.6 | 3.2 | 0.00 | 0.00 | 0.00 | 67 | 1012.4 |